Location: Béaulencourt
(50.0796°N, 2.8795°E)
Time: 18:11:52
(UTC+00:00)

Envisat - Pass Details

Date: 15 March 2026
Orbit: 761 x 762 km, 98.4° (Epoch: 14 April)

Event Time Altitude Azimuth Distance (km) Brightness Sun altitude
Rises 02:42:45 0° 14° (NNE) 3,238 7.0 -30.7°
Reaches altitude 10° 02:45:04 10° 14° (NNE) 2,307 6.1 -30.4°
Enters shadow 02:48:57 54° 12° (NNE) 929 3.5 -29.9°
